Location: Sternwarte Hubelmatt
(47.0367°N, 8.3053°E)
Time: 02:17:35
(UTC+02:00)

UWE-3 - Pass Details

Date: 26 April 2024
Orbit: 569 x 652 km, 97.8° (Epoch: 23 May)

Event Time Altitude Azimuth Distance (km) Brightness Sun altitude
Rises 05:32:33 0° 356° (N) 2,864 ? -7.9°
Reaches altitude 10° 05:35:32 10° 333° (NNW) 1,973 ? -7.5°
Maximum altitude 05:37:55 15° 299° (WNW) 1,690 ? -7.1°
Drops below altitude 10° 05:40:19 10° 265° (W) 1,995 ? -6.8°
Enters shadow 05:41:10 - 257° (WSW) 2,214 ? -6.7°
